Location: Holbach
(51.5399°N, 10.6036°E)
Time: 17:42:26
(UTC+00:00)

NOSS 2-2 (C) - Pass Details

Date: 18 September 2020
Orbit: 468 x 1740 km, 63.3° (Epoch: 19 October)

Event Time Altitude Azimuth Distance (km) Brightness Sun altitude
Rises 20:06:07 0° 245° (WSW) 2,509 7.0 -24.2°
Reaches altitude 10° 20:08:11 10° 252° (WSW) 1,666 6.2 -24.4°
Maximum altitude 20:11:38 43° 326° (NW) 757 4.4 -24.9°
Drops below altitude 10° 20:15:45 10° 39° (NE) 1,989 6.2 -25.4°
Enters shadow 20:15:46 10° 39° (NE) 1,994 6.2 -25.4°
Exits shadow 20:18:13 - 45° (NE) 2,989 7.0 -25.6°
Sets 20:18:26 0° 46° (NE) 3,073 7.1 -25.7°
